Location: ActonStarParty
(42.4766°N, 71.4538°W)
Time: 04:38:03
(UTC-04:00)

ATLAS 5 CENTAUR R/B - Visible Passes

Search period start: 21 April 2014 00:00
Search period end: 01 May 2014 00:00
Orbit: 325 x 15030 km, 60.8° (Epoch: 03 February)

Date Brightness Start Highest point End Pass type
(mag) Time Alt. Az. Time Alt. Az. Time Alt. Az.
21 Apr 6.3 00:00:13 10° W 00:54:05 42° N 01:04:03 10° ENE visible
21 Apr 6.5 22:22:21 10° WSW 23:47:03 48° NNW 00:00:24 10° NE visible
22 Apr 3.1 04:29:06 10° NW 04:41:43 60° WSW 04:45:27 10° SSE visible
22 Apr 6.7 20:50:59 10° SW 22:39:31 57° NW 22:56:49 10° NE visible
23 Apr 3.8 03:21:29 10° NW 03:38:33 69° NE 03:42:55 10° SE visible
23 Apr 6.8 19:31:31 10° SSW 21:31:44 70° NW 21:53:16 10° NE visible
24 Apr 5.1 02:11:06 10° NW 02:34:02 47° NNE 02:39:38 10° E visible
24 Apr 6.9 18:20:21 10° SSW 20:23:55 84° NW 20:49:40 10° NE visible
25 Apr 5.9 00:54:33 10° WNW 01:28:25 41° N 01:35:54 10° ENE visible
25 Apr 6.2 23:26:13 10° W 00:21:51 42° N 00:32:00 10° ENE visible
26 Apr 4.1 05:03:33 10° NW 05:11:16 24° W 05:14:40 10° SSW visible
26 Apr 6.5 21:47:42 10° WSW 23:14:30 48° NNW 23:28:07 10° NE visible
27 Apr 3.1 03:56:23 10° NW 04:09:22 62° WSW 04:13:10 10° SSE visible
27 Apr 6.7 20:16:35 10° SW 22:06:37 58° NW 22:24:17 10° NE visible
28 Apr 3.8 02:48:22 10° NW 03:05:56 68° NE 03:10:23 10° SE visible
28 Apr 6.8 18:57:23 10° SSW 20:58:30 70° NW 21:20:29 10° NE visible
29 Apr 5.1 01:37:26 10° NW 02:01:08 47° NNE 02:06:51 10° E visible
29 Apr 6.9 17:46:21 10° SSW 19:50:21 85° NW 20:16:38 10° NE visible
30 Apr 5.8 00:20:00 10° WNW 00:55:13 41° N 01:02:53 10° ENE visible
30 Apr 6.2 22:50:18 10° W 23:48:21 43° N 23:58:44 10° ENE visible
